Worthington, MN

1:44 PM CDT on October 20, 2017 (GMT -0500)
Worthington Municipal

Weather History for KOTG - January, 2013

Change the Weather History Date:

Friday, January 11, 2013

  Actual Average Record
Temperature  
Mean Temperature 30 °F -  
Max Temperature 37 °F 21 °F 50 °F (1990)
Min Temperature 23 °F 6 °F -26 °F (1982)
Degree Days  
Heating Degree Days 34    
Moisture  
Dew Point 30 °F    
Average Humidity 83    
Maximum Humidity 87    
Minimum Humidity 74    
Precipitation  
Precipitation 0.00 in - - ()
Sea Level Pressure  
Sea Level Pressure 29.46 in    
Wind  
Wind Speed 15 mph (SSW)    
Max Wind Speed 30 mph    
Max Gust Speed 34 mph    
Visibility 2 miles    
Events      
Averages and records for this station are not official NWS values.
T = Trace of Precipitation, MM = Missing Value Source: NWS Daily Summary

Daily Weather History Graph

Daily Weather History Graph

Search for Another Location

Airport or City:

Trip Planner

Search our weather history database for the weather conditions in past years. The results will help you decide how hot, cold, wet, or windy it might be!

Date:

Astronomy

Jan. 11, 2013 Rise Set
Actual Time 7:54 AM CST 5:06 PM CST
Civil Twilight 7:22 AM CST 5:38 PM CST
Nautical Twilight 6:46 AM CST 6:14 PM CST
Astronomical Twilight 6:12 AM CST 6:49 PM CST
Moon 7:26 AM CST (1/11) 5:27 PM CST (1/11)
Length of Visible Light 10h 16m
Length of Day
9h 12m
Waning Crescent, 0% of the Moon is Illuminated
Jan 11
Waning Crescent
Jan 11
New
Jan 18
First Quarter
Jan 26
Full
Feb 3
Last Quarter

Hourly Weather History & Observations

Time (CST) Temp. Windchill Dew Point Humidity Pressure Visibility Wind Dir Wind Speed Gust Speed Precip Events Conditions
12:15 AM 33.8 °F 23.5 °F 28.4 °F 81% 29.62 in 1.2 mi South 16.1 mph - N/A   Overcast
12:35 AM 33.8 °F 23.5 °F 28.4 °F 81% 29.62 in 1.2 mi South 16.1 mph - N/A   Overcast
12:55 AM 33.8 °F 23.5 °F 30.2 °F 87% 29.61 in 1.2 mi South 16.1 mph - N/A   Overcast
1:15 AM 33.8 °F 23.5 °F 28.4 °F 81% 29.59 in 1.2 mi South 16.1 mph - N/A   Overcast
1:35 AM 33.8 °F 23.5 °F 30.2 °F 87% 29.59 in 1.2 mi South 16.1 mph - N/A   Overcast
1:55 AM 33.8 °F 23.2 °F 30.2 °F 87% 29.57 in 1.5 mi South 17.3 mph - N/A   Overcast
2:15 AM 33.8 °F 23.5 °F 30.2 °F 87% 29.58 in 1.0 mi South 16.1 mph - N/A   Overcast
2:35 AM 33.8 °F 23.2 °F 30.2 °F 87% 29.59 in 0.8 mi South 17.3 mph - N/A   Overcast
2:55 AM 33.8 °F 23.5 °F 28.4 °F 81% 29.58 in 0.8 mi South 16.1 mph - N/A   Overcast
3:15 AM 33.8 °F 23.5 °F 30.2 °F 87% 29.57 in 1.0 mi South 16.1 mph - N/A   Overcast
3:35 AM 35.6 °F 26.2 °F 30.2 °F 81% 29.57 in 1.0 mi South 15.0 mph - N/A   Overcast
3:55 AM 35.6 °F 26.6 °F 30.2 °F 81% 29.56 in 1.0 mi South 13.8 mph - N/A   Overcast
4:15 AM 35.6 °F 25.5 °F 30.2 °F 81% 29.54 in 0.5 mi South 17.3 mph - N/A   Overcast
4:35 AM 33.8 °F 23.9 °F 30.2 °F 87% 29.52 in 0.5 mi South 15.0 mph - N/A   Overcast
4:55 AM 33.8 °F 23.5 °F 30.2 °F 87% 29.53 in 0.8 mi South 16.1 mph - N/A   Overcast
5:15 AM 33.8 °F 24.8 °F 30.2 °F 87% 29.53 in 0.5 mi South 12.7 mph - N/A   Overcast
5:35 AM 33.8 °F 24.3 °F 28.4 °F 81% 29.50 in 0.8 mi South 13.8 mph - N/A   Overcast
5:55 AM 33.8 °F 24.3 °F 28.4 °F 81% 29.50 in 0.8 mi South 13.8 mph - N/A   Overcast
6:35 AM 33.8 °F 24.3 °F 28.4 °F 81% 29.51 in 0.8 mi South 13.8 mph - N/A   Overcast
6:55 AM 33.8 °F 24.3 °F 30.2 °F 87% 29.51 in 0.8 mi South 13.8 mph - N/A   Overcast
7:15 AM 33.8 °F 25.3 °F 28.4 °F 81% 29.49 in 0.8 mi South 11.5 mph - N/A   Overcast
7:35 AM 35.6 °F 26.6 °F 30.2 °F 81% 29.49 in 1.0 mi South 13.8 mph - N/A   Overcast
7:55 AM 35.6 °F 27.1 °F 30.2 °F 81% 29.50 in 0.5 mi South 12.7 mph - N/A   Overcast
8:15 AM 35.6 °F 27.5 °F 30.2 °F 81% 29.49 in 0.5 mi South 11.5 mph - N/A   Overcast
8:35 AM 35.6 °F 26.6 °F 30.2 °F 81% 29.48 in 0.8 mi South 13.8 mph - N/A   Overcast
8:55 AM 35.6 °F 27.1 °F 30.2 °F 81% 29.50 in 0.5 mi SSW 12.7 mph 19.6 mph N/A   Overcast
9:15 AM 35.6 °F 28.0 °F 30.2 °F 81% 29.50 in 0.5 mi SSW 10.4 mph - N/A   Overcast
9:35 AM 35.6 °F 25.9 °F 30.2 °F 81% 29.50 in 0.8 mi SSW 16.1 mph 19.6 mph N/A   Overcast
9:55 AM 35.6 °F 27.1 °F 30.2 °F 81% 29.50 in 0.5 mi SSW 12.7 mph - N/A   Overcast
10:15 AM 35.6 °F 27.1 °F 30.2 °F 81% 29.48 in 0.5 mi South 12.7 mph - N/A   Overcast
10:35 AM 35.6 °F 27.5 °F 30.2 °F 81% 29.47 in 0.5 mi South 11.5 mph - N/A   Overcast
10:55 AM 35.6 °F 26.2 °F 30.2 °F 81% 29.45 in 0.2 mi South 15.0 mph 20.7 mph N/A   Overcast
11:15 AM 35.6 °F 25.5 °F 30.2 °F 81% 29.44 in 0.5 mi South 17.3 mph - N/A   Overcast
11:55 AM 35.6 °F 26.6 °F 30.2 °F 81% 29.42 in 2.0 mi South 13.8 mph - N/A   Overcast
12:15 PM 35.6 °F 25.9 °F 32.0 °F 87% 29.41 in 2.0 mi South 16.1 mph - N/A   Overcast
12:35 PM 35.6 °F 26.6 °F 32.0 °F 87% 29.40 in 0.8 mi South 13.8 mph - N/A   Overcast
12:55 PM 35.6 °F 27.1 °F 32.0 °F 87% 29.39 in 0.8 mi South 12.7 mph - N/A   Overcast
1:15 PM 35.6 °F 27.1 °F 32.0 °F 87% 29.39 in 0.8 mi South 12.7 mph - N/A   Overcast
1:35 PM 37.4 °F 30.3 °F 32.0 °F 81% 29.37 in 0.5 mi South 10.4 mph - N/A   Overcast
2:15 PM 37.4 °F 29.8 °F 32.0 °F 81% 29.37 in 0.5 mi South 11.5 mph - N/A   Overcast
2:35 PM 35.6 °F 28.6 °F 32.0 °F 87% 29.37 in 0.2 mi South 9.2 mph - N/A   Overcast
2:55 PM 35.6 °F 28.0 °F 32.0 °F 87% 29.37 in 0.2 mi SSE 10.4 mph - N/A   Overcast
3:15 PM 35.6 °F 29.2 °F 32.0 °F 87% 29.36 in 0.2 mi SSE 8.1 mph - N/A   Overcast
3:35 PM 35.6 °F 28.6 °F 32.0 °F 87% 29.37 in 0.2 mi South 9.2 mph - N/A   Overcast
3:55 PM 35.6 °F 28.6 °F 32.0 °F 87% 29.38 in 0.2 mi South 9.2 mph - N/A   Overcast
4:15 PM 35.6 °F 28.6 °F 32.0 °F 87% 29.36 in 0.2 mi South 9.2 mph - N/A   Overcast
4:35 PM 35.6 °F 28.6 °F 32.0 °F 87% 29.36 in 0.2 mi South 9.2 mph - N/A   Overcast
4:55 PM 37.4 °F 31.4 °F 32.0 °F 81% 29.34 in 0.2 mi South 8.1 mph - N/A   Overcast
5:15 PM 37.4 °F 29.8 °F 32.0 °F 81% 29.35 in 0.2 mi South 11.5 mph - N/A   Overcast
5:35 PM 37.4 °F 29.3 °F 33.8 °F 87% 29.36 in 0.5 mi SSW 12.7 mph - N/A   Overcast
5:55 PM 37.4 °F 30.3 °F 33.8 °F 87% 29.37 in 0.5 mi SSW 10.4 mph - N/A   Overcast
6:15 PM 37.4 °F 29.8 °F 33.8 °F 87% 29.37 in 0.5 mi SW 11.5 mph - N/A   Overcast
6:35 PM 37.4 °F 30.3 °F 32.0 °F 81% 29.38 in 1.8 mi SW 10.4 mph - N/A   Overcast
6:55 PM 35.6 °F 27.1 °F 30.2 °F 81% 29.38 in 2.5 mi SW 12.7 mph - N/A   Overcast
7:15 PM 35.6 °F 27.1 °F 30.2 °F 81% 29.38 in 6.0 mi WSW 12.7 mph - N/A   Overcast
7:35 PM 35.6 °F 28.0 °F 30.2 °F 81% 29.38 in 5.0 mi WSW 10.4 mph - N/A   Overcast
7:55 PM 33.8 °F 23.5 °F 30.2 °F 87% 29.39 in 3.0 mi WSW 16.1 mph - N/A   Overcast
8:15 PM 33.8 °F 23.2 °F 28.4 °F 81% 29.40 in 3.0 mi West 17.3 mph 20.7 mph N/A   Overcast
8:35 PM 32.0 °F 22.1 °F 26.6 °F 80% 29.41 in 10.0 mi West 13.8 mph 23.0 mph N/A   Overcast
9:15 PM 30.2 °F 18.9 °F 26.6 °F 86% 29.41 in 10.0 mi WSW 16.1 mph - N/A   Overcast
9:35 PM 30.2 °F 17.1 °F 24.8 °F 80% 29.43 in 10.0 mi WSW 21.9 mph 25.3 mph N/A   Overcast
9:55 PM 28.4 °F 14.4 °F 23.0 °F 80% 29.43 in 10.0 mi West 23.0 mph - N/A   Overcast
10:15 PM 28.4 °F 14.1 °F 23.0 °F 80% 29.44 in 10.0 mi West 24.2 mph 28.8 mph N/A   Overcast
10:35 PM 26.6 °F 12.7 °F 21.2 °F 80% 29.44 in 10.0 mi West 20.7 mph 25.3 mph N/A   Overcast
10:55 PM 26.6 °F 12.0 °F 19.4 °F 74% 29.45 in 10.0 mi West 23.0 mph 26.5 mph N/A   Overcast
11:35 PM 24.8 °F 10.0 °F 19.4 °F 80% 29.48 in 10.0 mi West 21.9 mph 31.1 mph N/A   Overcast
11:55 PM 23.0 °F 5.4 °F 17.6 °F 80% 29.50 in 9.0 mi West 29.9 mph 34.5 mph N/A   Overcast